Preview of NWS' New Version of Forecast
This preview is not operational and should not be used for support decisions.

Regional Weather Roundup (RWR)

Issued by National Weather Service (NWS)

                            
000
ASUS44 KMEG 210900
RWRTN 
TENNESSEE HOURLY STATE WEATHER ROUNDUP
NATIONAL WEATHER SERVICE MEMPHIS TN
300 AM CST THU FEB 21 2019

TNZ002-004-019-021-049-052-054-088>092-211000-
WEST TENNESSEE
  
CITY           SKY/WX    TMP DP  RH WIND       PRES   REMARKS
MEMPHIS INTL   FAIR      35  35 100 CALM      30.09R                  
NWS MEMPHIS      N/A     32 N/A N/A MISG        N/A                   
JACKSON        FOG       32  32 100 CALM      30.09F VSB 1/4          
DYERSBURG      FOG       33  33 100 CALM      30.11S VSB 3/4          
$$

TNZ008-025-027-028-033-062-065-066-211000-
NORTH MIDDLE TENNESSEE
  
CITY           SKY/WX    TMP DP  RH WIND       PRES   REMARKS
NASHVILLE      CLOUDY    43  38  82 N6        30.10F                  
CLARKSVILLE    CLOUDY    39  37  92 W6        30.11R FOG     WCI  35  
SMYRNA         CLOUDY    44  40  85 N5        30.11S                  
CROSSVILLE     CLOUDY    50  49  96 N6        30.03S FOG              
$$

TNZ061-075-076-078-094-096-097-211000-
SOUTH MIDDLE TENNESSEE
  
CITY           SKY/WX    TMP DP  RH WIND       PRES   REMARKS
FAYETTEVILLE   CLOUDY    48  48 100 N8        30.03S FOG              
$$

TNZ017-018-042-046-047-211000-
NORTHEAST TENNESSEE
  
CITY           SKY/WX    TMP DP  RH WIND       PRES   REMARKS
TRI CITIES     LGT RAIN  45  45 100 CALM      30.05R FOG              
$$

TNZ012-013-036-069-073-074-211000-
CENTRAL EAST TENNESSEE
  
CITY           SKY/WX    TMP DP  RH WIND       PRES   REMARKS
KNOXVILLE      NOT AVBL                                               
OAK RIDGE      CLOUDY    52  52 100 CALM      30.03  FOG              
$$

TNZ083-085-099-211000-
SOUTHEAST TENNESSEE
  
CITY           SKY/WX    TMP DP  RH WIND       PRES   REMARKS
CHATTANOOGA    CLOUDY    48  46  93 CALM      30.03F FOG              
$$

SKY/WX REPORTED AS FAIR MEANS FEW OR NO CLOUDS BELOW
12 THOUSAND FEET.